[[{"header":{"parameterUnit":"m.s-1","parameterCategory":1,"la1":30.2991,"la2":30.254,"lo1":-89.0895,"lo2":-89.0444,"dy":0.0017,"dx":0.0017,"nx":28,"ny":28,"refTime":"2025-01-21T09:00:00:Z","depth":0,"parameterNumber":2,"parameterNumberName":"U-component_of_WINDS"},"data":[0,0,0,0,0,0,0,0,0,0,0,0,0,0,0,0,0,0,0,0,0,0,0,0,0,0,0,0,0,0,0,0,0,0,0,0,0,0,0,0,0,0,0,0,0,0,0,0,0,0,0,0,0,0,0,0,0,0,0.173,0.173,0,0.1652,0.1651,0.1651,0.1663,0.1664,0.1665,0.1667,0.1584,0.1581,0.1577,0,0,0,0,0,0,0,0,0,0,0,0,0,0.1889,0.1886,0.1731,0.173,0.1729,0.1652,0.1651,0.165,0.1663,0.1664,0.1666,0.1667,0.1585,0.1581,0.1577,0,0,0,0,0,0,0,0,0,0,0,0,0,0.1816,0.1885,0.1731,0.1726,0.1724,0.1653,0.1651,0.165,0.1662,0.1664,0.1666,0.1668,0.1587,0.1582,0.1576,0.1504,0,0,0.1561,0.1558,0,0,0,0,0,0,0,0,0.1821,0.1811,0.1727,0.1726,0.1724,0.1669,0.1677,0.1601,0.1662,0.1686,0.1667,0.1669,0.1611,0.1604,0.1584,0.15,0.1497,0.156,0.1557,0.1555,0.1553,0,0,0,0,0,0,0,0.1826,0.1814,0.17,0.1726,0.1724,0.1727,0.1719,0.1663,0.1638,0.1684,0.1684,0.1675,0.161,0.1589,0.1583,0.1496,0.156,0.1556,0.1553,0.155,0.1349,0.1347,0,0,0,0,0,0,0.1832,0.1818,0.1702,0.1697,0.1779,0.1722,0.1713,0.1685,0.1638,0.1633,0.1674,0.1676,0.1597,0.1589,0.158,0.1492,0.1555,0.155,0.1547,0.1351,0.1348,0.1346,0,0,0,0,0,0,0.1836,0.1822,0.1705,0.1758,0.1743,0.1717,0.1686,0.1682,0.1662,0.1631,0.1626,0.1657,0.1599,0.1587,0.1523,0.1489,0.1548,0.1543,0.1354,0.135,0.1347,0.1315,0,0,0,0,0,0,0.184,0.1823,0.1795,0.1757,0.174,0.165,0.1683,0.1679,0.1653,0.1655,0.1614,0.1609,0.1599,0.1531,0.1518,0.1483,0.1539,0.1357,0.1352,0.1348,0.1319,0.1311,0.1304,0,0,0,0,0,0.1846,0.1789,0.1794,0.178,0.1705,0.1648,0.1638,0.1629,0.165,0.1622,0.1602,0.161,0.1496,0.1524,0.151,0.1473,0.1359,0.1353,0.1348,0.1322,0.1313,0.1304,0,0,0,0,0,0,0.1822,0.1784,0.1789,0.1718,0.1686,0.165,0.1614,0.1619,0.158,0.1584,0.1573,0.1564,0.1499,0.148,0.1513,0.1401,0.143,0.1422,0.1415,0.1405,0.1398,0.1403,0.1535,0,0,0,0,0,0.1809,0.1766,0.1735,0.1675,0.1659,0.164,0.1614,0.161,0.1576,0.1563,0.1539,0.1505,0.1462,0.1433,0.1391,0.1318,0.1308,0.1285,0.1278,0.1272,0.1264,0.1223,0.1212,0.1329,0.1329,0.1329,0,0,0.178,0.1754,0.1727,0.167,0.1645,0.16,0.1628,0.1579,0.1546,0.1555,0.1493,0.1475,0.1437,0.1368,0.1336,0.135,0.123,0.1265,0.1261,0.1256,0.1217,0.1206,0.1196,0.1326,0.1326,0.1327,0,0,0.1705,0.1682,0.1629,0.1604,0.1567,0.1555,0.1542,0.1506,0.1494,0.1432,0.1438,0.1399,0.1324,0.1297,0.1273,0.1191,0.1196,0.1178,0.1138,0.1098,0.1089,0.1081,0.105,0.104,0.1171,0.1171,0.1171,0,0.1674,0.1607,0.1602,0.1552,0.1527,0.1535,0.1482,0.1458,0.1408,0.139,0.1407,0.1314,0.1289,0.1214,0.1194,0.1175,0.116,0.1181,0.1091,0.1083,0.1075,0.1046,0.1034,0.1168,0.1169,0.1169,0.1169,0,0.1571,0.1525,0.1487,0.144,0.141,0.1359,0.1345,0.1316,0.1316,0.1302,0.1239,0.121,0.1163,0.1145,0.1143,0.1069,0.1079,0.1094,0.1122,0.1062,0.1034,0.1023,0.1165,0.1166,0.1167,0.1167,0,0,0.1475,0.1427,0.1413,0.1392,0.1353,0.1317,0.1267,0.1222,0.1196,0.1163,0.112,0.1058,0.1072,0.1045,0.1041,0.1007,0.0942,0.1026,0.1025,0.101,0.0858,0.0846,0.0833,0.0947,0.0945,0.0944,0.0861,0,0.1395,0.1306,0.1301,0.1221,0.1178,0.1187,0.1143,0.1114,0.11,0.1062,0.1047,0.1002,0.1025,0.1009,0.0976,0.0957,0.0911,0.0963,0.0906,0.0904,0.0913,0.0819,0.0805,0.0728,0.085,0.0848,0.0847,0,0.1288,0.1253,0.1168,0.1136,0.1118,0.1079,0.1037,0.1001,0.0968,0.0961,0.0933,0.0934,0.0882,0.0916,0.0844,0.088,0.0857,0.0844,0.0841,0.0833,0.087,0.0806,0.0704,0.0691,0.083,0.0832,0.0833,0,0.1225,0.1156,0.1097,0.1079,0.104,0.1012,0.0994,0.0964,0.0938,0.0902,0.0885,0.0844,0.082,0.0788,0.0778,0.0804,0.0707,0.0739,0.0698,0.0698,0.0675,0.0676,0.0565,0.0664,0.0664,0.0665,0.0665,0,0.1134,0.1082,0.1068,0.1031,0.0973,0.0968,0.091,0.0895,0.0868,0.0828,0.0834,0.0797,0.0787,0.0748,0.0741,0.0682,0.0672,0.0664,0.0662,0.0662,0.0663,0.0644,0.0649,0.0661,0.0662,0.0663,0.0663,0,0.1052,0.1041,0.0977,0.0946,0.0937,0.0896,0.0869,0.0834,0.0822,0.0772,0.076,0.0741,0.0696,0.0684,0.0629,0.0624,0.0555,0.0559,0.0565,0.0565,0.0524,0.0527,0.0395,0.0377,0.049,0.0489,0.0488,0,0.0994,0.0954,0.092,0.0894,0.0875,0.0834,0.0807,0.0801,0.0774,0.0735,0.0704,0.066,0.0623,0.055,0.0531,0.049,0.0492,0.0449,0.0485,0.0487,0.0489,0.049,0.0486,0.044,0.0439,0.0438,0.0438,0,0.0891,0.0888,0.085,0.081,0.0779,0.0747,0.0716,0.0695,0.0685,0.0654,0.0607,0.058,0.0525,0.048,0.0439,0.042,0.0426,0.0427,0.0415,0.0413,0.0417,0.0413,0.0544,0.0429,0.043,0.043,0.0431,0.0431,0.0817,0.0782,0.0753,0.0711,0.0688,0.066,0.0625,0.061,0.0572,0.0527,0.0526,0.0476,0.0446,0.0391,0.0371,0.0332,0.0344,0.0327,0.0323,0.0318,0.0313,0.0426,0.0324,0.0325,0.0325,0.0325,0.0325,0,0.0713,0.0695,0.0657,0.0615,0.0581,0.0593,0.0561,0.0532,0.0487,0.046,0.0425,0.0372,0.0329,0.0309,0.0267,0.0239,0.0241,0.0228,0.0228,0.0224,0.0305,0.0319,0.0227,0.0227,0.0227,0.0227,0.0227,0.0227,0.0655,0.0596,0.059,0.052,0.0503,0.0454,0.0434,0.0409,0.0387,0.0328,0.0293,0.028,0.0255,0.0212,0.0173,0.0168,0.0152,0.0137,0.0133,0.0208,0.0218,0.0228,0.024,0.0134,0.0134,0.0055,0.0054,0.0054]},{"header":{"parameterUnit":"m.s-1","parameterCategory":1,"la1":30.2991,"la2":30.254,"lo1":-89.0895,"lo2":-89.0444,"dy":0.0017,"dx":0.0017,"nx":28,"ny":28,"refTime":"2025-01-21T09:00:00:Z","depth":0,"parameterNumber":3,"parameterNumberName":"V-component_of_WINDS"},"data":[0,0,0,0,0,0,0,0,0,0,0,0,0,0,0,0,0,0,0,0,0,0,0,0,0,0,0,0,0,0,0,0,0,0,0,0,0,0,0,0,0,0,0,0,0,0,0,0,0,0,0,0,0,0,0,0,0,0,-7.1565,-7.1567,0,-7.1765,-7.1767,-7.1769,-7.1693,-7.1688,-7.1683,-7.1679,-7.1877,-7.1886,-7.1896,0,0,0,0,0,0,0,0,0,0,0,0,0,-7.111,-7.1119,-7.1565,-7.1567,-7.157,-7.1764,-7.1767,-7.177,-7.1693,-7.1688,-7.1682,-7.1677,-7.1874,-7.1885,-7.1897,0,0,0,0,0,0,0,0,0,0,0,0,0,-7.1309,-7.1122,-7.1564,-7.1555,-7.1556,-7.1764,-7.1767,-7.177,-7.1694,-7.1688,-7.1681,-7.1674,-7.187,-7.1884,-7.1898,-7.2124,0,0,-7.1942,-7.1948,0,0,0,0,0,0,0,0,-7.1297,-7.1325,-7.1554,-7.1556,-7.1558,-7.1697,-7.1679,-7.1889,-7.1696,-7.1642,-7.1679,-7.1671,-7.1822,-7.184,-7.1892,-7.2134,-7.2142,-7.1943,-7.1952,-7.1958,-7.1962,0,0,0,0,0,0,0,-7.1284,-7.1316,-7.1644,-7.1557,-7.156,-7.1539,-7.1559,-7.1719,-7.1768,-7.1646,-7.1641,-7.1666,-7.1822,-7.1879,-7.1896,-7.2145,-7.1943,-7.1956,-7.1964,-7.197,-7.2579,-7.2586,0,0,0,0,0,0,-7.127,-7.1305,-7.1637,-7.165,-7.1408,-7.1553,-7.1576,-7.1659,-7.1766,-7.1776,-7.1672,-7.1662,-7.1858,-7.188,-7.1903,-7.2174,-7.1958,-7.1971,-7.198,-7.2572,-7.2581,-7.2589,0,0,0,0,0,0,-7.1261,-7.1301,-7.1629,-7.1476,-7.1517,-7.1568,-7.1662,-7.1667,-7.1723,-7.1786,-7.1793,-7.1721,-7.1853,-7.1883,-7.207,-7.218,-7.1978,-7.1991,-7.2563,-7.2575,-7.2585,-7.2718,0,0,0,0,0,0,-7.1248,-7.1298,-7.1386,-7.1479,-7.1525,-7.1795,-7.1669,-7.1675,-7.1749,-7.1738,-7.1834,-7.1843,-7.185,-7.2049,-7.2084,-7.2196,-7.2002,-7.2553,-7.2568,-7.2581,-7.2704,-7.2732,-7.2757,0,0,0,0,0,-7.1232,-7.1414,-7.1391,-7.1431,-7.1637,-7.1802,-7.1828,-7.1834,-7.1758,-7.1846,-7.1886,-7.184,-7.2162,-7.2069,-7.2108,-7.2225,-7.2546,-7.2564,-7.258,-7.2692,-7.2727,-7.2756,0,0,0,0,0,0,-7.1331,-7.1427,-7.1401,-7.162,-7.1704,-7.1789,-7.19,-7.1871,-7.1976,-7.1961,-7.1961,-7.1984,-7.2176,-7.2219,-7.2114,-7.2448,-7.2342,-7.2368,-7.2414,-7.2447,-7.2473,-7.2459,-7.2014,0,0,0,0,0,-7.1379,-7.1507,-7.1582,-7.1768,-7.1811,-7.1849,-7.1921,-7.1918,-7.2004,-7.2038,-7.2091,-7.2175,-7.2294,-7.2373,-7.2487,-7.2709,-7.2728,-7.2809,-7.2835,-7.2857,-7.2879,-7.2998,-7.3035,-7.2645,-7.2645,-7.2645,0,0,-7.1478,-7.1546,-7.1626,-7.1789,-7.1854,-7.1984,-7.1879,-7.2022,-7.2118,-7.2059,-7.224,-7.2281,-7.2374,-7.258,-7.2673,-7.2621,-7.2991,-7.2879,-7.2895,-7.2906,-7.302,-7.3057,-7.3089,-7.2657,-7.2655,-7.2653,0,0,-7.1725,-7.179,-7.1951,-7.2018,-7.2118,-7.2141,-7.218,-7.227,-7.2296,-7.2477,-7.2436,-7.2548,-7.2755,-7.2823,-7.2884,-7.3155,-7.3117,-7.3192,-7.333,-7.3446,-7.3477,-7.3504,-7.36,-7.3635,-7.3214,-7.3214,-7.3214,0,-7.1835,-7.2033,-7.2037,-7.2184,-7.2256,-7.221,-7.2372,-7.2436,-7.2567,-7.2616,-7.2557,-7.2815,-7.2874,-7.3094,-7.316,-7.3212,-7.3254,-7.3181,-7.3473,-7.35,-7.3525,-7.3617,-7.3653,-7.3223,-7.3222,-7.3221,-7.322,0,-7.2163,-7.23,-7.2417,-7.2547,-7.2632,-7.2785,-7.281,-7.2895,-7.2885,-7.2914,-7.3097,-7.3167,-7.3293,-7.3345,-7.3336,-7.3564,-7.3528,-7.3472,-7.3365,-7.3571,-7.3657,-7.3692,-7.3235,-7.3232,-7.3229,-7.3227,0,0,-7.2479,-7.2609,-7.2652,-7.2709,-7.2815,-7.292,-7.307,-7.3196,-7.3268,-7.3359,-7.3484,-7.3659,-7.3606,-7.3676,-7.3673,-7.3776,-7.3985,-7.3705,-7.3707,-7.3754,-7.4239,-7.4281,-7.4321,-7.396,-7.3966,-7.3972,-7.423,0,-7.2734,-7.3,-7.3008,-7.325,-7.3376,-7.3333,-7.3464,-7.3541,-7.3572,-7.3681,-7.3713,-7.3838,-7.376,-7.3801,-7.3901,-7.3938,-7.4082,-7.392,-7.4073,-7.4079,-7.4052,-7.4366,-7.4412,-7.4653,-7.4264,-7.427,-7.4274,0,-7.3068,-7.3172,-7.3427,-7.3514,-7.3567,-7.3685,-7.3799,-7.3905,-7.3991,-7.4006,-7.4083,-7.4065,-7.4215,-7.4104,-7.431,-7.42,-7.4262,-7.429,-7.43,-7.4314,-7.4189,-7.4389,-7.473,-7.4766,-7.4327,-7.4323,-7.4319,0,-7.3273,-7.3476,-7.3654,-7.3705,-7.3811,-7.3894,-7.3942,-7.4021,-7.4096,-7.4195,-7.4243,-7.4358,-7.442,-7.4508,-7.4521,-7.4439,-7.4727,-7.4617,-7.4742,-7.4742,-7.4805,-7.4801,-7.5161,-7.4846,-7.4846,-7.4845,-7.4844,0,-7.3557,-7.3715,-7.3748,-7.3858,-7.4032,-7.4038,-7.421,-7.425,-7.4321,-7.4436,-7.4406,-7.4514,-7.4524,-7.4634,-7.4644,-7.4813,-7.4841,-7.4856,-7.4857,-7.4859,-7.4857,-7.49,-7.4883,-7.4854,-7.4852,-7.485,-7.4849,0,-7.3815,-7.3844,-7.4036,-7.4121,-7.4145,-7.427,-7.4341,-7.4445,-7.4472,-7.4618,-7.4652,-7.4694,-7.4823,-7.4844,-7.4994,-7.5001,-7.5202,-7.5186,-7.5174,-7.5172,-7.5296,-7.5283,-7.5696,-7.5749,-7.54,-7.5403,-7.5406,0,-7.3995,-7.4115,-7.4213,-7.4289,-7.4341,-7.4464,-7.454,-7.4549,-7.4629,-7.4735,-7.4826,-7.4952,-7.5053,-7.526,-7.5302,-7.5417,-7.5402,-7.5539,-7.5419,-7.5417,-7.5404,-7.5396,-7.5408,-7.5562,-7.5566,-7.5569,-7.5571,0,-7.431,-7.4318,-7.443,-7.4548,-7.4639,-7.4732,-7.4818,-7.4882,-7.4901,-7.4992,-7.5125,-7.5203,-7.5357,-7.5482,-7.5596,-7.5641,-7.561,-7.5609,-7.5643,-7.5647,-7.5635,-7.5642,-7.5237,-7.5599,-7.5596,-7.5594,-7.5593,-7.5592,-7.4534,-7.4639,-7.4724,-7.4849,-7.4916,-7.4998,-7.5099,-7.5139,-7.525,-7.5378,-7.5376,-7.552,-7.5601,-7.575,-7.5804,-7.5915,-7.5871,-7.5921,-7.5934,-7.5947,-7.5958,-7.5618,-7.5936,-7.5935,-7.5934,-7.5934,-7.5933,0,-7.4848,-7.49,-7.5016,-7.5139,-7.5237,-7.52,-7.5293,-7.5377,-7.5506,-7.5585,-7.5685,-7.5836,-7.5956,-7.6008,-7.6125,-7.6204,-7.6192,-7.6235,-7.6229,-7.624,-7.5992,-7.595,-7.6242,-7.6242,-7.6242,-7.6242,-7.6242,-7.6242,-7.5022,-7.5198,-7.5215,-7.5422,-7.5472,-7.5616,-7.5672,-7.5746,-7.5809,-7.598,-7.608,-7.6114,-7.6181,-7.6303,-7.6411,-7.6422,-7.6467,-7.6516,-7.6521,-7.6288,-7.6257,-7.6227,-7.6188,-7.6525,-7.6526,-7.6759,-7.6761,-7.6763]}]]